Current Weather Conditions: station ENRS

sailwx.info

See reports from other nearby stations

no recent reports received from weather station ID ENRS

Tides Pressure Air temp Water temp Dewpoint Dewpoint depression Visibility Wind speed Wind direction Waves Ship positions
date/time (UTC)wind fromknots sea level pressurealtimeterstation pressurevisibilityair tempwater tempwave heightnotes
2017-Oct-20 07:20 070 8 5.4 7.0
2017-Oct-20 06:50 060 8 5.4 7.0
2017-Oct-20 06:20 070 8 5.4 7.0
2017-Oct-20 05:50 070 8 5.4 7.0
2017-Oct-20 05:20 070 8 5.4 7.0
2017-Oct-20 04:50 070 7 5.4 7.0
2017-Oct-19 15:50 010 2 5.4 7.0 Showers in the vicinity.
2017-Oct-19 15:20 020 7 5.4 7.0 Showers in the vicinity.
2017-Oct-19 14:50 350 6 5.4 8.0 Showers in the vicinity.
2017-Oct-19 14:20 350 6 5.4 8.0 Showers in the vicinity.
2017-Oct-19 13:20 320 7 5.4 8.0 Light rain showers.
2017-Oct-19 07:50 300 4 5.4 6.0 Showers in the vicinity.
2017-Oct-19 06:50 330 7 5.4 8.0 Showers in the vicinity.
2017-Oct-19 06:20 320 7 5.4 8.0 Showers in the vicinity.
2017-Oct-19 05:50 320 8 5.4 7.0
2017-Oct-19 05:20 320 6 5.4 7.0
2017-Oct-19 04:50 320 7 5.4 8.0
2017-Oct-18 15:20 340 20 5.4 9.0
2017-Oct-18 14:50 350 17 5.4 9.0 Showers in the vicinity.
2017-Oct-18 13:50 350 20 5.4 9.0 Showers in the vicinity.